QPF
0.00 0.00 0.00 0.00 0.00 0.00 0.00 0.00 0.00 0.00 0.00 0.00 0.00 0.00 0.00 0.00 0.00 0.01 0.03 0.07 0.16 0.26 0.33 0.32 0.26 0.18 0.12 0.08 0.04 0.02 0.01 0.01 0.01 0.01 0.01 0.02 0.01 0.01 0.01 0.00 0.00 0.01 0.01
0.00 0.00 0.00 0.00 0.00 0.00 0.00 0.00 0.00 0.00 0.00 0.00 0.00 0.00 0.00 0.00 0.00 0.00 0.01 0.03 0.08 0.16 0.31 0.43 0.42 0.34 0.25 0.16 0.10 0.06 0.03 0.01 0.01 0.01 0.02 0.02 0.02 0.02 0.01 0.00 0.00 0.00 0.01
0.00 0.00 0.00 0.00 0.00 0.00 0.00 0.00 0.00 0.00 0.00 0.00 0.00 0.00 0.00 0.00 0.00 0.00 0.00 0.01 0.03 0.07 0.15 0.30 0.47 0.51 0.41 0.30 0.20 0.12 0.07 0.04 0.03 0.02 0.03 0.02 0.02 0.01 0.01 0.01 0.00 0.00 0.00
0.00 0.00 0.00 0.00 0.00 0.00 0.00 0.00 0.00 0.00 0.00 0.00 0.00 0.00 0.00 0.00 0.00 0.00 0.00 0.00 0.01 0.02 0.06 0.12 0.25 0.46 0.56 0.48 0.34 0.24 0.17 0.11 0.06 0.04 0.04 0.04 0.02 0.02 0.01 0.01 0.01 0.01 0.00
0.00 0.00 0.00 0.00 0.00 0.00 0.00 0.00 0.01 0.01 0.01 0.01 0.02 0.01 0.01 0.00 0.00 0.00 0.01 0.01 0.01 0.01 0.02 0.05 0.09 0.20 0.42 0.59 0.55 0.39 0.26 0.17 0.12 0.08 0.06 0.05 0.03 0.02 0.02 0.01 0.01 0.01 0.01
0.00 0.00 0.00 0.00 0.00 0.01 0.01 0.01 0.01 0.02 0.03 0.03 0.03 0.03 0.02 0.01 0.00 0.00 0.01 0.01 0.02 0.02 0.02 0.02 0.04 0.09 0.17 0.33 0.48 0.52 0.45 0.29 0.16 0.11 0.08 0.06 0.04 0.02 0.01 0.01 0.01 0.01 0.01
0.00 0.00 0.01 0.01 0.01 0.01 0.01 0.02 0.03 0.04 0.05 0.06 0.06 0.06 0.05 0.04 0.02 0.01 0.00 0.02 0.03 0.03 0.03 0.03 0.02 0.04 0.09 0.15 0.24 0.35 0.40 0.35 0.25 0.16 0.10 0.08 0.06 0.04 0.02 0.01 0.01 0.01 0.01
0.00 0.01 0.01 0.01 0.02 0.02 0.03 0.03 0.04 0.06 0.07 0.08 0.08 0.08 0.09 0.07 0.04 0.01 0.01 0.01 0.04 0.05 0.05 0.04 0.03 0.03 0.04 0.09 0.16 0.21 0.25 0.25 0.21 0.15 0.12 0.11 0.10 0.09 0.05 0.03 0.01 0.01 0.02
0.01 0.01 0.02 0.02 0.03 0.03 0.04 0.05 0.06 0.07 0.08 0.09 0.10 0.10 0.10 0.10 0.06 0.02 0.01 0.03 0.06 0.06 0.05 0.04 0.04 0.04 0.02 0.03 0.08 0.16 0.19 0.19 0.17 0.15 0.11 0.11 0.11 0.09 0.07 0.04 0.02 0.02 0.03
0.01 0.02 0.02 0.03 0.04 0.05 0.06 0.06 0.08 0.09 0.10 0.10 0.11 0.11 0.11 0.12 0.08 0.03 0.02 0.05 0.05 0.05 0.06 0.05 0.02 0.02 0.02 0.01 0.03 0.09 0.14 0.17 0.16 0.13 0.10 0.08 0.07 0.06 0.05 0.03 0.02 0.02 0.03
0.02 0.02 0.02 0.03 0.05 0.05 0.06 0.07 0.09 0.10 0.10 0.10 0.10 0.11 0.11 0.11 0.09 0.04 0.03 0.03 0.04 0.05 0.04 0.05 0.04 0.00 0.00 0.00 0.02 0.05 0.08 0.13 0.16 0.15 0.12 0.10 0.09 0.07 0.05 0.04 0.03 0.03 0.03
0.02 0.02 0.02 0.03 0.04 0.04 0.07 0.07 0.08 0.09 0.09 0.09 0.09 0.10 0.11 0.09 0.06 0.04 0.02 0.02 0.02 0.04 0.05 0.05 0.05 0.01 0.00 0.00 0.01 0.03 0.05 0.08 0.13 0.15 0.15 0.12 0.09 0.08 0.07 0.06 0.07 0.07 0.07
0.02 0.02 0.02 0.03 0.03 0.05 0.06 0.06 0.07 0.09 0.09 0.10 0.10 0.10 0.10 0.10 0.07 0.02 0.01 0.01 0.00 0.02 0.04 0.04 0.03 0.01 0.01 0.01 0.01 0.02 0.05 0.07 0.10 0.13 0.14 0.13 0.09 0.07 0.07 0.10 0.12 0.12 0.12
0.03 0.02 0.02 0.03 0.03 0.03 0.05 0.06 0.08 0.09 0.11 0.12 0.10 0.09 0.10 0.09 0.08 0.06 0.03 0.02 0.01 0.01 0.02 0.02 0.00 0.00 0.02 0.02 0.02 0.02 0.05 0.08 0.09 0.12 0.13 0.14 0.11 0.09 0.09 0.10 0.11 0.11 0.12
0.03 0.02 0.02 0.03 0.03 0.03 0.04 0.05 0.05 0.07 0.07 0.09 0.10 0.10 0.09 0.08 0.07 0.04 0.05 0.05 0.04 0.03 0.04 0.05 0.03 0.02 0.03 0.04 0.04 0.05 0.07 0.11 0.13 0.15 0.16 0.15 0.13 0.11 0.10 0.09 0.08 0.07 0.07
0.03 0.02 0.02 0.02 0.03 0.03 0.04 0.04 0.04 0.03 0.02 0.02 0.04 0.05 0.06 0.05 0.03 0.01 0.01 0.01 0.02 0.01 0.03 0.05 0.04 0.04 0.04 0.06 0.07 0.09 0.12 0.15 0.17 0.18 0.19 0.18 0.14 0.11 0.10 0.09 0.08 0.07 0.05
0.03 0.02 0.02 0.03 0.03 0.03 0.03 0.04 0.06 0.06 0.04 0.03 0.03 0.03 0.03 0.03 0.02 0.02 0.01 0.00 0.00 0.00 0.02 0.05 0.04 0.03 0.05 0.08 0.10 0.13 0.16 0.18 0.21 0.22 0.24 0.22 0.17 0.11 0.09 0.09 0.09 0.08 0.06
0.02 0.02 0.03 0.03 0.03 0.03 0.04 0.05 0.06 0.07 0.07 0.05 0.03 0.03 0.03 0.02 0.02 0.02 0.01 0.01 0.01 0.01 0.03 0.04 0.04 0.04 0.05 0.10 0.14 0.17 0.21 0.24 0.26 0.27 0.29 0.28 0.19 0.13 0.10 0.09 0.08 0.07 0.05
0.02 0.02 0.02 0.02 0.03 0.03 0.04 0.05 0.06 0.05 0.05 0.04 0.03 0.03 0.04 0.03 0.02 0.02 0.01 0.03 0.03 0.02 0.02 0.03 0.04 0.04 0.07 0.11 0.17 0.22 0.27 0.30 0.31 0.30 0.30 0.30 0.23 0.15 0.11 0.09 0.08 0.07 0.05
0.02 0.02 0.01 0.01 0.02 0.02 0.03 0.04 0.05 0.05 0.04 0.04 0.04 0.04 0.03 0.03 0.03 0.02 0.03 0.03 0.03 0.03 0.03 0.04 0.05 0.06 0.09 0.14 0.19 0.26 0.33 0.37 0.35 0.32 0.29 0.28 0.24 0.17 0.11 0.09 0.07 0.06 0.04
0.02 0.02 0.01 0.01 0.02 0.02 0.02 0.03 0.04 0.05 0.04 0.03 0.02 0.01 0.02 0.04 0.05 0.04 0.03 0.03 0.03 0.03 0.04 0.05 0.06 0.07 0.11 0.18 0.22 0.29 0.36 0.39 0.35 0.30 0.26 0.24 0.22 0.17 0.11 0.07 0.06 0.05 0.03
0.03 0.02 0.02 0.01 0.02 0.02 0.02 0.03 0.04 0.03 0.03 0.03 0.03 0.02 0.02 0.04 0.04 0.05 0.05 0.05 0.05 0.05 0.06 0.07 0.08 0.10 0.13 0.18 0.22 0.28 0.33 0.32 0.28 0.24 0.21 0.18 0.16 0.14 0.10 0.06 0.04 0.03 0.03
0.02 0.02 0.02 0.02 0.02 0.01 0.01 0.02 0.03 0.03 0.03 0.03 0.03 0.03 0.04 0.05 0.05 0.06 0.05 0.05 0.05 0.06 0.08 0.10 0.12 0.14 0.17 0.18 0.20 0.23 0.24 0.21 0.18 0.14 0.12 0.11 0.10 0.08 0.07 0.05 0.03 0.02 0.01
0.02 0.02 0.02 0.02 0.01 0.02 0.02 0.02 0.02 0.02 0.03 0.04 0.05 0.04 0.05 0.06 0.05 0.05 0.06 0.06 0.07 0.09 0.11 0.13 0.14 0.15 0.15 0.15 0.16 0.17 0.16 0.14 0.10 0.07 0.06 0.05 0.05 0.03 0.03 0.02 0.01 0.01 0.01
0.01 0.01 0.01 0.02 0.01 0.01 0.01 0.02 0.02 0.02 0.02 0.03 0.03 0.04 0.04 0.04 0.04 0.05 0.06 0.07 0.09 0.11 0.12 0.13 0.14 0.12 0.10 0.09 0.09 0.10 0.10 0.09 0.06 0.04 0.03 0.02 0.01 0.01 0.01 0.01 0.00 0.00 0.00
0.00 0.00 0.01 0.01 0.01 0.01 0.01 0.01 0.02 0.02 0.01 0.02 0.02 0.03 0.04 0.04 0.05 0.05 0.06 0.09 0.11 0.12 0.11 0.10 0.09 0.08 0.07 0.06 0.05 0.05 0.05 0.04 0.02 0.02 0.01 0.00 0.00 0.00 0.00 0.00 0.00 0.00 0.00
MSLP
1011.82 1011.60 1011.36 1011.07 1010.74 1010.37 1009.98 1009.61 1009.26 1008.96 1008.73 1008.57 1008.46 1008.40 1008.38 1008.37 1008.36 1008.36 1008.36 1008.36 1008.36 1008.36 1008.35 1008.32 1008.26 1008.17 1008.05 1007.91 1007.77 1007.65 1007.59 1007.61 1007.72 1007.94 1008.27 1008.67 1009.13 1009.60 1010.05 1010.46 1010.80 1011.07 1011.28
1011.55 1011.33 1011.07 1010.78 1010.43 1010.04 1009.62 1009.19 1008.79 1008.42 1008.11 1007.87 1007.69 1007.57 1007.50 1007.48 1007.49 1007.53 1007.60 1007.68 1007.78 1007.88 1007.96 1008.00 1008.00 1007.93 1007.81 1007.64 1007.46 1007.30 1007.19 1007.17 1007.27 1007.50 1007.86 1008.32 1008.86 1009.43 1010.00 1010.52 1010.98 1011.35 1011.65
1011.34 1011.11 1010.84 1010.52 1010.15 1009.73 1009.27 1008.81 1008.35 1007.93 1007.55 1007.24 1006.99 1006.80 1006.68 1006.62 1006.61 1006.67 1006.77 1006.92 1007.10 1007.29 1007.46 1007.59 1007.66 1007.65 1007.56 1007.41 1007.23 1007.04 1006.91 1006.87 1006.95 1007.17 1007.54 1008.04 1008.64 1009.29 1009.94 1010.57 1011.14 1011.62 1012.03
1011.17 1010.91 1010.62 1010.27 1009.87 1009.42 1008.93 1008.43 1007.94 1007.47 1007.05 1006.68 1006.36 1006.12 1005.93 1005.82 1005.78 1005.81 1005.92 1006.10 1006.32 1006.58 1006.84 1007.06 1007.22 1007.30 1007.29 1007.19 1007.04 1006.88 1006.75 1006.70 1006.76 1006.97 1007.33 1007.84 1008.45 1009.15 1009.87 1010.58 1011.24 1011.83 1012.33
1010.98 1010.70 1010.37 1009.99 1009.55 1009.06 1008.55 1008.02 1007.51 1007.02 1006.57 1006.16 1005.80 1005.50 1005.26 1005.09 1004.99 1004.98 1005.06 1005.23 1005.48 1005.78 1006.11 1006.42 1006.68 1006.87 1006.96 1006.96 1006.89 1006.77 1006.67 1006.62 1006.67 1006.86 1007.19 1007.68 1008.29 1008.99 1009.75 1010.51 1011.24 1011.92 1012.52
1010.71 1010.41 1010.04 1009.61 1009.13 1008.61 1008.08 1007.54 1007.02 1006.52 1006.07 1005.65 1005.27 1004.94 1004.65 1004.42 1004.26 1004.20 1004.23 1004.37 1004.62 1004.94 1005.32 1005.71 1006.07 1006.37 1006.58 1006.69 1006.71 1006.67 1006.61 1006.58 1006.62 1006.78 1007.08 1007.52 1008.10 1008.79 1009.54 1010.33 1011.11 1011.85 1012.54
1010.34 1010.00 1009.59 1009.11 1008.59 1008.04 1007.48 1006.94 1006.43 1005.95 1005.51 1005.11 1004.73 1004.39 1004.07 1003.81 1003.60 1003.48 1003.47 1003.57 1003.80 1004.13 1004.54 1004.99 1005.44 1005.84 1006.15 1006.37 1006.48 1006.52 1006.51 1006.50 1006.54 1006.67 1006.92 1007.32 1007.85 1008.51 1009.24 1010.04 1010.85 1011.64 1012.39
1009.85 1009.46 1009.00 1008.48 1007.92 1007.34 1006.76 1006.22 1005.73 1005.28 1004.88 1004.51 1004.17 1003.84 1003.53 1003.26 1003.03 1002.87 1002.82 1002.89 1003.09 1003.42 1003.84 1004.33 1004.83 1005.30 1005.70 1006.00 1006.19 1006.29 1006.32 1006.33 1006.36 1006.47 1006.69 1007.03 1007.52 1008.14 1008.85 1009.64 1010.47 1011.30 1012.10
1009.26 1008.83 1008.32 1007.75 1007.15 1006.54 1005.95 1005.42 1004.95 1004.54 1004.19 1003.87 1003.58 1003.31 1003.03 1002.78 1002.55 1002.39 1002.32 1002.37 1002.55 1002.86 1003.28 1003.77 1004.29 1004.80 1005.24 1005.59 1005.82 1005.96 1006.02 1006.04 1006.07 1006.16 1006.34 1006.66 1007.12 1007.70 1008.41 1009.19 1010.03 1010.89 1011.73
1008.64 1008.16 1007.60 1006.99 1006.34 1005.70 1005.11 1004.58 1004.13 1003.77 1003.47 1003.22 1003.01 1002.80 1002.59 1002.38 1002.20 1002.06 1001.99 1002.03 1002.20 1002.48 1002.88 1003.35 1003.86 1004.35 1004.79 1005.14 1005.39 1005.53 1005.60 1005.62 1005.65 1005.74 1005.91 1006.22 1006.67 1007.25 1007.95 1008.75 1009.60 1010.47 1011.34
1008.04 1007.51 1006.91 1006.25 1005.56 1004.89 1004.29 1003.76 1003.34 1003.02 1002.78 1002.60 1002.47 1002.34 1002.21 1002.08 1001.95 1001.85 1001.82 1001.86 1002.01 1002.27 1002.62 1003.05 1003.50 1003.95 1004.35 1004.67 1004.89 1005.02 1005.08 1005.10 1005.14 1005.23 1005.42 1005.74 1006.21 1006.81 1007.53 1008.35 1009.21 1010.10 1010.97
1007.52 1006.94 1006.28 1005.57 1004.85 1004.16 1003.54 1003.02 1002.62 1002.34 1002.16 1002.05 1001.99 1001.95 1001.91 1001.86 1001.80 1001.76 1001.75 1001.81 1001.94 1002.16 1002.46 1002.81 1003.19 1003.57 1003.89 1004.15 1004.32 1004.42 1004.46 1004.49 1004.54 1004.67 1004.90 1005.26 1005.77 1006.42 1007.18 1008.02 1008.91 1009.80 1010.67
1007.08 1006.45 1005.74 1004.99 1004.23 1003.51 1002.89 1002.38 1002.00 1001.76 1001.63 1001.59 1001.61 1001.64 1001.68 1001.70 1001.71 1001.71 1001.73 1001.79 1001.90 1002.07 1002.31 1002.58 1002.87 1003.15 1003.39 1003.57 1003.68 1003.75 1003.78 1003.82 1003.91 1004.08 1004.37 1004.80 1005.37 1006.08 1006.89 1007.77 1008.67 1009.57 1010.42
1006.73 1006.03 1005.27 1004.47 1003.68 1002.95 1002.32 1001.83 1001.48 1001.28 1001.20 1001.22 1001.30 1001.40 1001.50 1001.57 1001.62 1001.66 1001.69 1001.73 1001.81 1001.93 1002.09 1002.27 1002.47 1002.65 1002.81 1002.92 1002.99 1003.03 1003.07 1003.13 1003.26 1003.49 1003.85 1004.36 1005.01 1005.78 1006.64 1007.55 1008.47 1009.36 1010.18
1006.39 1005.63 1004.81 1003.97 1003.16 1002.43 1001.82 1001.35 1001.04 1000.88 1000.85 1000.93 1001.05 1001.20 1001.34 1001.45 1001.51 1001.55 1001.57 1001.58 1001.61 1001.67 1001.75 1001.85 1001.96 1002.07 1002.16 1002.22 1002.26 1002.29 1002.34 1002.45 1002.63 1002.93 1003.36 1003.94 1004.66 1005.48 1006.39 1007.33 1008.25 1009.13 1009.92
1006.04 1005.21 1004.34 1003.46 1002.64 1001.92 1001.34 1000.91 1000.66 1000.55 1000.58 1000.69 1000.86 1001.03 1001.18 1001.29 1001.35 1001.36 1001.35 1001.31 1001.28 1001.27 1001.29 1001.32 1001.37 1001.42 1001.47 1001.51 1001.54 1001.59 1001.67 1001.82 1002.05 1002.41 1002.91 1003.54 1004.31 1005.17 1006.10 1007.05 1007.97 1008.84 1009.61
1005.62 1004.73 1003.81 1002.92 1002.11 1001.42 1000.88 1000.51 1000.31 1000.27 1000.35 1000.51 1000.70 1000.88 1001.03 1001.11 1001.14 1001.11 1001.03 1000.95 1000.85 1000.78 1000.74 1000.73 1000.74 1000.77 1000.80 1000.85 1000.90 1000.98 1001.10 1001.29 1001.57 1001.97 1002.50 1003.17 1003.95 1004.82 1005.75 1006.70 1007.61 1008.46 1009.21
1005.16 1004.21 1003.26 1002.36 1001.57 1000.92 1000.44 1000.14 1000.02 1000.04 1000.17 1000.36 1000.57 1000.75 1000.88 1000.93 1000.90 1000.81 1000.68 1000.53 1000.39 1000.27 1000.19 1000.15 1000.15 1000.19 1000.24 1000.32 1000.41 1000.53 1000.69 1000.91 1001.22 1001.63 1002.17 1002.83 1003.60 1004.45 1005.36 1006.28 1007.18 1008.01 1008.76
1004.69 1003.70 1002.74 1001.84 1001.08 1000.48 1000.07 999.84 999.79 999.87 1000.05 1000.27 1000.48 1000.65 1000.74 1000.75 1000.67 1000.53 1000.34 1000.14 999.95 999.80 999.71 999.68 999.69 999.76 999.85 999.97 1000.11 1000.27 1000.46 1000.70 1001.02 1001.42 1001.93 1002.55 1003.27 1004.08 1004.94 1005.83 1006.70 1007.52 1008.27
1004.28 1003.27 1002.30 1001.43 1000.70 1000.16 999.80 999.64 999.65 999.78 999.99 1000.23 1000.44 1000.59 1000.65 1000.61 1000.48 1000.29 1000.06 999.82 999.61 999.46 999.37 999.36 999.41 999.52 999.66 999.83 1000.02 1000.21 1000.43 1000.67 1000.97 1001.34 1001.80 1002.36 1003.01 1003.75 1004.55 1005.39 1006.23 1007.04 1007.80
1004.00 1002.99 1002.03 1001.19 1000.50 1000.00 999.69 999.58 999.62 999.78 1000.01 1000.25 1000.44 1000.57 1000.59 1000.52 1000.35 1000.12 999.86 999.61 999.40 999.25 999.19 999.21 999.31 999.47 999.67 999.88 1000.11 1000.33 1000.55 1000.78 1001.05 1001.37 1001.76 1002.25 1002.82 1003.48 1004.22 1005.00 1005.81 1006.61 1007.37
1003.91 1002.91 1001.98 1001.16 1000.51 1000.04 999.76 999.66 999.72 999.88 1000.10 1000.31 1000.49 1000.58 1000.57 1000.46 1000.27 1000.02 999.75 999.50 999.30 999.18 999.16 999.22 999.36 999.57 999.81 1000.06 1000.31 1000.55 1000.77 1000.99 1001.22 1001.48 1001.81 1002.21 1002.71 1003.30 1003.97 1004.70 1005.47 1006.25 1007.01
1004.03 1003.06 1002.16 1001.37 1000.73 1000.27 999.99 999.88 999.91 1000.05 1000.22 1000.40 1000.53 1000.59 1000.55 1000.42 1000.22 999.97 999.71 999.47 999.30 999.21 999.22 999.32 999.50 999.74 1000.01 1000.29 1000.56 1000.80 1001.01 1001.20 1001.40 1001.62 1001.89 1002.24 1002.67 1003.19 1003.81 1004.49 1005.23 1005.98 1006.73
1004.32 1003.40 1002.52 1001.75 1001.11 1000.64 1000.34 1000.19 1000.17 1000.24 1000.36 1000.48 1000.56 1000.58 1000.51 1000.37 1000.17 999.93 999.69 999.48 999.34 999.28 999.32 999.45 999.65 999.91 1000.20 1000.49 1000.76 1000.99 1001.20 1001.38 1001.55 1001.74 1001.98 1002.28 1002.67 1003.15 1003.72 1004.36 1005.06 1005.79 1006.50
1004.73 1003.85 1003.00 1002.24 1001.60 1001.10 1000.75 1000.54 1000.44 1000.44 1000.48 1000.53 1000.55 1000.53 1000.44 1000.29 1000.10 999.88 999.67 999.50 999.39 999.36 999.42 999.56 999.78 1000.04 1000.33 1000.61 1000.88 1001.11 1001.31 1001.49 1001.65 1001.83 1002.05 1002.34 1002.70 1003.15 1003.68 1004.29 1004.95 1005.63 1006.31
1005.17 1004.34 1003.53 1002.77 1002.11 1001.57 1001.16 1000.87 1000.69 1000.60 1000.56 1000.53 1000.50 1000.44 1000.34 1000.19 1000.01 999.83 999.65 999.52 999.44 999.44 999.51 999.66 999.87 1000.13 1000.40 1000.68 1000.93 1001.16 1001.36 1001.54 1001.71 1001.89 1002.11 1002.39 1002.74 1003.17 1003.68 1004.24 1004.86 1005.49 1006.12
Thickness
5623 5621 5618 5616 5614 5612 5610 5609 5608 5606 5604 5604 5604 5604 5605 5606 5608 5610 5615 5620 5625 5630 5636 5642 5650 5657 5665 5673 5680 5685 5690 5693 5695 5703 5708 5708 5706 5708 5709 5710 5711 5710 5708
5616 5612 5609 5606 5604 5601 5599 5596 5593 5591 5589 5589 5589 5590 5591 5594 5596 5598 5601 5606 5612 5617 5623 5628 5635 5643 5650 5658 5667 5675 5681 5686 5688 5692 5697 5700 5699 5700 5701 5701 5702 5702 5700
5607 5603 5600 5596 5592 5588 5584 5580 5576 5573 5572 5571 5572 5574 5576 5578 5581 5584 5587 5592 5597 5603 5610 5615 5621 5627 5636 5643 5652 5662 5670 5676 5681 5686 5689 5692 5692 5693 5692 5692 5692 5692 5691
5598 5593 5589 5584 5580 5575 5570 5564 5560 5556 5554 5554 5554 5557 5559 5562 5565 5569 5572 5576 5582 5589 5596 5602 5609 5614 5622 5629 5637 5646 5655 5664 5670 5676 5681 5683 5684 5684 5685 5683 5681 5682 5683
5588 5584 5579 5574 5568 5562 5555 5550 5545 5541 5538 5537 5537 5539 5541 5545 5550 5554 5557 5561 5566 5573 5581 5588 5596 5603 5609 5616 5624 5632 5639 5649 5658 5665 5671 5674 5676 5676 5677 5677 5675 5673 5671
5580 5575 5570 5563 5556 5549 5542 5535 5530 5525 5522 5520 5520 5522 5525 5530 5536 5538 5541 5547 5554 5560 5567 5575 5583 5589 5596 5602 5610 5619 5626 5634 5644 5654 5662 5667 5670 5673 5674 5672 5669 5667 5663
5572 5566 5560 5553 5545 5537 5530 5523 5517 5511 5507 5504 5504 5506 5510 5514 5518 5521 5525 5533 5542 5548 5555 5561 5571 5581 5585 5593 5600 5607 5614 5622 5631 5640 5650 5659 5664 5668 5668 5666 5666 5666 5663
5565 5558 5551 5543 5535 5527 5519 5511 5505 5499 5494 5491 5491 5493 5496 5501 5503 5507 5512 5520 5531 5539 5544 5550 5557 5567 5575 5583 5592 5599 5606 5614 5622 5631 5640 5649 5655 5660 5662 5662 5661 5656 5651
5558 5551 5543 5534 5526 5519 5510 5503 5496 5489 5484 5482 5482 5483 5486 5491 5493 5496 5501 5513 5522 5530 5537 5544 5549 5555 5561 5568 5581 5591 5599 5606 5613 5621 5628 5636 5642 5649 5653 5653 5650 5648 5642
5552 5545 5536 5527 5519 5512 5504 5497 5489 5483 5479 5477 5476 5477 5480 5484 5487 5490 5493 5508 5517 5526 5532 5539 5541 5546 5549 5555 5568 5579 5589 5599 5608 5615 5620 5626 5633 5638 5643 5647 5648 5647 5642
5546 5539 5532 5524 5516 5509 5501 5493 5487 5482 5478 5475 5474 5475 5477 5480 5483 5485 5489 5503 5514 5521 5530 5535 5540 5538 5541 5546 5555 5570 5580 5590 5601 5609 5615 5621 5626 5631 5636 5641 5645 5648 5646
5543 5536 5530 5523 5516 5509 5500 5494 5488 5481 5477 5475 5474 5475 5477 5479 5482 5484 5488 5494 5504 5515 5524 5532 5536 5534 5535 5539 5548 5558 5567 5576 5591 5601 5610 5616 5622 5627 5631 5635 5637 5640 5643
5540 5535 5529 5523 5516 5508 5501 5495 5489 5483 5477 5475 5474 5476 5478 5480 5482 5484 5486 5491 5498 5508 5519 5524 5527 5528 5530 5536 5541 5549 5558 5572 5585 5595 5605 5614 5620 5624 5625 5625 5626 5628 5630
5539 5535 5530 5524 5517 5510 5502 5496 5490 5485 5479 5476 5474 5476 5479 5481 5485 5488 5493 5494 5496 5504 5513 5518 5519 5523 5530 5537 5542 5546 5557 5570 5580 5589 5600 5608 5613 5617 5619 5620 5619 5619 5618
5539 5535 5531 5526 5519 5512 5506 5498 5492 5486 5478 5474 5474 5475 5478 5483 5485 5487 5495 5501 5507 5513 5517 5521 5527 5532 5536 5541 5546 5552 5559 5566 5574 5583 5593 5601 5607 5612 5614 5614 5614 5614 5615
5539 5537 5533 5528 5522 5516 5511 5504 5493 5484 5477 5472 5469 5470 5476 5477 5480 5485 5489 5494 5501 5508 5515 5524 5530 5536 5541 5545 5549 5552 5557 5564 5572 5580 5589 5596 5602 5607 5609 5609 5610 5612 5613
5539 5537 5534 5530 5525 5520 5515 5509 5503 5492 5481 5476 5473 5473 5474 5476 5480 5484 5488 5493 5498 5503 5516 5527 5533 5537 5542 5546 5549 5553 5558 5563 5569 5577 5584 5591 5597 5602 5605 5606 5607 5609 5610
5541 5539 5535 5533 5528 5524 5518 5513 5507 5502 5496 5490 5481 5476 5477 5479 5481 5485 5488 5493 5502 5507 5521 5529 5534 5538 5542 5545 5549 5552 5556 5561 5565 5572 5580 5587 5593 5598 5602 5604 5606 5608 5608
5543 5541 5538 5535 5532 5528 5522 5517 5512 5507 5502 5498 5493 5487 5482 5482 5484 5486 5490 5504 5514 5518 5524 5530 5535 5539 5542 5544 5546 5549 5553 5557 5562 5568 5575 5584 5590 5596 5600 5603 5604 5602 5606
5544 5541 5537 5538 5536 5531 5526 5521 5516 5511 5507 5503 5500 5498 5496 5496 5499 5499 5502 5510 5517 5523 5527 5531 5534 5537 5539 5541 5543 5545 5549 5553 5558 5564 5573 5581 5588 5594 5598 5600 5601 5601 5602
5545 5545 5541 5541 5539 5534 5529 5524 5519 5514 5510 5507 5505 5501 5493 5504 5507 5509 5512 5516 5520 5525 5528 5531 5533 5535 5536 5537 5540 5543 5546 5550 5555 5563 5571 5579 5586 5591 5594 5597 5598 5599 5600
5545 5547 5545 5543 5540 5536 5531 5526 5521 5517 5514 5511 5510 5507 5499 5506 5512 5515 5517 5519 5522 5524 5527 5530 5532 5533 5535 5537 5539 5542 5546 5550 5556 5563 5570 5577 5584 5589 5592 5594 5595 5596 5598
5546 5547 5546 5545 5543 5537 5536 5531 5526 5521 5518 5515 5513 5512 5511 5511 5513 5515 5518 5520 5522 5524 5525 5526 5528 5530 5532 5534 5537 5541 5546 5551 5556 5563 5570 5577 5583 5588 5591 5592 5594 5595 5596
5545 5546 5546 5546 5545 5544 5540 5536 5530 5526 5522 5519 5517 5515 5514 5513 5515 5516 5518 5519 5522 5524 5525 5526 5527 5529 5530 5533 5536 5541 5546 5551 5558 5564 5571 5578 5582 5586 5589 5589 5592 5593 5594
5544 5545 5545 5544 5544 5545 5543 5540 5535 5530 5526 5523 5522 5520 5519 5519 5519 5521 5522 5523 5524 5525 5526 5526 5528 5530 5533 5536 5539 5544 5547 5553 5560 5568 5574 5579 5583 5586 5588 5589 5591 5592 5592
5542 5543 5544 5543 5543 5544 5544 5543 5540 5536 5533 5529 5527 5526 5525 5525 5526 5527 5528 5528 5529 5530 5531 5533 5534 5536 5539 5542 5543 5545 5549 5555 5562 5569 5576 5580 5583 5585 5586 5588 5589 5589 5588